Time,TemperatureF,DewpointF,PressureIn,WindDirection,WindDirectionDegrees,WindSpeedMPH,WindSpeedGustMPH,Humidity,HourlyPrecipIn,Conditions,Clouds,dailyrainin,SoftwareType,DateUTC
2013-08-10 00:02:00,85.0,50.0,-100.00,North,-999,-999.0,-999.0,30,0.00,,,0.00,,2013-08-10 05:02:00,
2013-08-10 00:22:00,85.0,51.0,-100.00,North,-999,-999.0,-999.0,32,-99.99,,,0.00,,2013-08-10 05:22:00,
2013-08-10 00:32:00,85.0,51.0,-100.00,North,-999,-999.0,-999.0,32,-99.99,,,0.00,,2013-08-10 05:32:00,
2013-08-10 00:52:00,84.0,51.0,-100.00,North,-999,-999.0,-999.0,33,-99.99,,,0.00,,2013-08-10 05:52:00,
2013-08-10 01:02:00,83.0,52.0,-100.00,North,-999,-999.0,-999.0,34,0.00,,,-99.99,,2013-08-10 06:02:00,
2013-08-10 01:22:00,83.0,54.0,-100.00,North,-999,-999.0,-999.0,37,0.00,,,0.00,,2013-08-10 06:22:00,
2013-08-10 01:32:00,83.0,54.0,-100.00,North,-999,-999.0,-999.0,37,0.00,,,0.00,,2013-08-10 06:32:00,
2013-08-10 01:44:00,83.0,54.0,-100.00,North,-999,-999.0,-999.0,37,0.00,,,0.00,,2013-08-10 06:44:00,
2013-08-10 01:53:00,83.0,54.0,-100.00,North,-999,-999.0,-999.0,37,0.00,,,0.00,,2013-08-10 06:53:00,
2013-08-10 02:02:00,81.0,61.0,-100.00,North,-999,-999.0,-999.0,49,0.00,,,0.00,,2013-08-10 07:02:00,
2013-08-10 02:22:00,81.0,61.0,-100.00,North,-999,-999.0,-999.0,52,0.00,,,0.00,,2013-08-10 07:22:00,
2013-08-10 02:33:00,80.0,62.0,-100.00,North,-999,-999.0,-999.0,54,0.00,,,0.00,,2013-08-10 07:33:00,
2013-08-10 02:52:00,79.0,64.0,-100.00,North,-999,-999.0,-999.0,58,0.00,,,0.00,,2013-08-10 07:52:00,
2013-08-10 03:01:00,79.0,65.0,-100.00,North,-999,-999.0,-999.0,61,0.00,,,0.00,,2013-08-10 08:01:00,
2013-08-10 03:21:00,79.0,66.0,-100.00,North,-999,-999.0,-999.0,65,0.00,,,0.00,,2013-08-10 08:21:00,
2013-08-10 03:32:00,79.0,67.0,-100.00,North,-999,-999.0,-999.0,68,0.00,,,0.00,,2013-08-10 08:32:00,
2013-08-10 03:43:00,79.0,67.0,-100.00,North,-999,-999.0,-999.0,68,0.00,,,0.00,,2013-08-10 08:43:00,
2013-08-10 03:53:00,78.0,68.0,-100.00,North,-999,-999.0,-999.0,71,0.00,,,0.00,,2013-08-10 08:53:00,
2013-08-10 04:02:00,78.0,69.0,-100.00,North,-999,-999.0,-999.0,73,0.00,,,0.00,,2013-08-10 09:02:00,
2013-08-10 04:21:00,77.0,69.0,-100.00,North,-999,-999.0,-999.0,75,0.00,,,-99.99,,2013-08-10 09:21:00,
2013-08-10 04:32:00,77.0,69.0,-100.00,North,-999,-999.0,-999.0,76,0.00,,,0.00,,2013-08-10 09:32:00,
2013-08-10 04:43:00,77.0,69.0,-100.00,North,-999,-999.0,-999.0,76,0.00,,,0.00,,2013-08-10 09:43:00,
2013-08-10 04:52:00,77.0,69.0,-100.00,North,-999,-999.0,-999.0,76,0.00,,,0.00,,2013-08-10 09:52:00,
2013-08-10 05:02:00,77.0,70.0,-100.00,North,-999,-999.0,-999.0,79,0.00,,,-99.99,,2013-08-10 10:02:00,
2013-08-10 05:22:00,76.0,70.0,-100.00,North,-999,-999.0,-999.0,81,0.00,,,-99.99,,2013-08-10 10:22:00,
2013-08-10 05:33:00,76.0,70.0,-100.00,North,-999,-999.0,-999.0,83,0.00,,,0.00,,2013-08-10 10:33:00,
2013-08-10 05:52:00,75.0,70.0,-100.00,North,-999,-999.0,-999.0,86,-99.99,,,0.00,,2013-08-10 10:52:00,
2013-08-10 06:02:00,74.0,70.0,-100.00,North,-999,-999.0,-999.0,87,0.00,,,0.00,,2013-08-10 11:02:00,
2013-08-10 06:22:00,74.0,71.0,-100.00,North,-999,-999.0,-999.0,90,0.00,,,-99.99,,2013-08-10 11:22:00,
2013-08-10 06:33:00,73.0,71.0,-100.00,North,-999,-999.0,-999.0,92,0.00,,,0.00,,2013-08-10 11:33:00,
2013-08-10 06:52:00,73.0,70.0,-100.00,North,-999,-999.0,-999.0,93,0.00,,,0.00,,2013-08-10 11:52:00,
2013-08-10 07:01:00,72.0,71.0,-100.00,North,-999,-999.0,-999.0,95,0.00,,,-99.99,,2013-08-10 12:01:00,
2013-08-10 07:22:00,73.0,71.0,-100.00,North,-999,-999.0,-999.0,93,0.00,,,0.00,,2013-08-10 12:22:00,
2013-08-10 07:32:00,73.0,71.0,-100.00,North,-999,-999.0,-999.0,93,0.00,,,0.00,,2013-08-10 12:32:00,
2013-08-10 07:52:00,74.0,71.0,-100.00,North,-999,-999.0,-999.0,91,0.00,,,0.00,,2013-08-10 12:52:00,
2013-08-10 08:01:00,76.0,71.0,-100.00,North,-999,-999.0,-999.0,85,0.00,,,0.00,,2013-08-10 13:01:00,
2013-08-10 08:21:00,78.0,70.0,-100.00,North,-999,-999.0,-999.0,78,0.00,,,0.00,,2013-08-10 13:21:00,
2013-08-10 08:32:00,79.0,71.0,-100.00,North,-999,-999.0,-999.0,77,0.00,,,0.00,,2013-08-10 13:32:00,
2013-08-10 08:43:00,79.0,71.0,-100.00,North,-999,-999.0,-999.0,77,0.00,,,0.00,,2013-08-10 13:43:00,
2013-08-10 08:52:00,80.0,70.0,-100.00,North,-999,-999.0,-999.0,72,0.00,,,0.00,,2013-08-10 13:52:00,
2013-08-10 09:02:00,80.0,71.0,-100.00,North,-999,-999.0,-999.0,73,0.00,,,0.00,,2013-08-10 14:02:00,
2013-08-10 09:22:00,81.0,70.0,-100.00,North,-999,-999.0,-999.0,68,0.00,,,-99.99,,2013-08-10 14:22:00,
2013-08-10 09:32:00,82.0,69.0,-100.00,North,-999,-999.0,-999.0,64,0.00,,,0.00,,2013-08-10 14:32:00,
2013-08-10 09:42:00,82.0,69.0,-100.00,North,-999,-999.0,-999.0,64,0.00,,,0.00,,2013-08-10 14:42:00,
2013-08-10 09:53:00,83.0,69.0,-100.00,North,-999,-999.0,-999.0,63,0.00,,,0.00,,2013-08-10 14:53:00,
2013-08-10 10:02:00,83.0,69.0,-100.00,North,-999,-999.0,-999.0,61,0.00,,,0.00,,2013-08-10 15:02:00,
2013-08-10 10:22:00,84.0,69.0,-100.00,North,-999,-999.0,-999.0,61,0.00,,,0.00,,2013-08-10 15:22:00,
2013-08-10 10:33:00,85.0,68.0,-100.00,North,-999,-999.0,-999.0,57,0.00,,,0.00,,2013-08-10 15:33:00,
2013-08-10 10:43:00,85.0,68.0,-100.00,North,-999,-999.0,-999.0,57,0.00,,,0.00,,2013-08-10 15:43:00,
2013-08-10 10:52:00,85.0,68.0,-100.00,North,-999,-999.0,-999.0,57,0.00,,,0.00,,2013-08-10 15:52:00,
2013-08-10 11:01:00,86.0,68.0,-100.00,North,-999,-999.0,-999.0,54,0.00,,,0.00,,2013-08-10 16:01:00,
2013-08-10 11:11:00,86.0,68.0,-100.00,North,-999,-999.0,-999.0,54,0.00,,,0.00,,2013-08-10 16:11:00,
2013-08-10 11:22:00,87.0,68.0,-100.00,North,-999,-999.0,-999.0,53,0.00,,,-99.99,,2013-08-10 16:22:00,
2013-08-10 11:32:00,88.0,68.0,-100.00,North,-999,-999.0,-999.0,50,0.00,,,0.00,,2013-08-10 16:32:00,
2013-08-10 11:43:00,88.0,68.0,-100.00,North,-999,-999.0,-999.0,50,0.00,,,0.00,,2013-08-10 16:43:00,
2013-08-10 11:53:00,89.0,69.0,-100.00,North,-999,-999.0,-999.0,51,-99.99,,,0.00,,2013-08-10 16:53:00,
2013-08-10 12:02:00,90.0,67.0,-100.00,North,-999,-999.0,-999.0,47,0.00,,,0.00,,2013-08-10 17:02:00,
2013-08-10 12:22:00,90.0,67.0,-100.00,North,-999,-999.0,-999.0,47,0.00,,,0.00,,2013-08-10 17:22:00,
2013-08-10 12:33:00,92.0,66.0,-100.00,North,-999,-999.0,-999.0,42,0.00,,,0.00,,2013-08-10 17:33:00,
2013-08-10 12:52:00,92.0,65.0,-100.00,North,-999,-999.0,-999.0,42,0.00,,,0.00,,2013-08-10 17:52:00,
2013-08-10 13:01:00,92.0,66.0,-100.00,North,-999,-999.0,-999.0,42,0.00,,,0.00,,2013-08-10 18:01:00,
2013-08-10 13:11:00,92.0,66.0,-100.00,North,-999,-999.0,-999.0,42,0.00,,,0.00,,2013-08-10 18:11:00,
2013-08-10 13:23:00,92.0,66.0,-100.00,North,-999,-999.0,-999.0,42,0.00,,,0.00,,2013-08-10 18:23:00,
2013-08-10 13:32:00,93.0,65.0,-100.00,North,-999,-999.0,-999.0,40,0.00,,,0.00,,2013-08-10 18:32:00,
2013-08-10 13:44:00,93.0,65.0,-100.00,North,-999,-999.0,-999.0,40,0.00,,,0.00,,2013-08-10 18:44:00,
2013-08-10 13:52:00,94.0,64.0,-100.00,North,-999,-999.0,-999.0,38,0.00,,,0.00,,2013-08-10 18:52:00,
2013-08-10 14:02:00,93.0,63.0,-100.00,North,-999,-999.0,-999.0,38,0.00,,,0.00,,2013-08-10 19:02:00,
2013-08-10 14:22:00,92.0,63.0,-100.00,North,-999,-999.0,-999.0,38,-99.99,,,0.00,,2013-08-10 19:22:00,
2013-08-10 14:32:00,92.0,63.0,-100.00,North,-999,-999.0,-999.0,38,-99.99,,,0.00,,2013-08-10 19:32:00,
2013-08-10 14:53:00,95.0,61.0,-100.00,North,-999,-999.0,-999.0,33,0.00,,,0.00,,2013-08-10 19:53:00,
2013-08-10 15:02:00,96.0,62.0,-100.00,North,-999,-999.0,-999.0,33,0.00,,,0.00,,2013-08-10 20:02:00,
2013-08-10 15:11:00,96.0,62.0,-100.00,North,-999,-999.0,-999.0,33,0.00,,,0.00,,2013-08-10 20:11:00,
2013-08-10 15:22:00,97.0,61.0,-100.00,North,-999,-999.0,-999.0,31,0.00,,,0.00,,2013-08-10 20:22:00,
2013-08-10 15:33:00,96.0,60.0,-100.00,North,-999,-999.0,-999.0,31,0.00,,,0.00,,2013-08-10 20:33:00,
2013-08-10 15:43:00,96.0,60.0,-100.00,North,-999,-999.0,-999.0,31,0.00,,,0.00,,2013-08-10 20:43:00,
2013-08-10 15:53:00,95.0,60.0,-100.00,North,-999,-999.0,-999.0,32,0.00,,,0.00,,2013-08-10 20:53:00,
2013-08-10 16:02:00,96.0,61.0,-100.00,North,-999,-999.0,-999.0,32,0.00,,,0.00,,2013-08-10 21:02:00,
2013-08-10 16:22:00,96.0,61.0,-100.00,North,-999,-999.0,-999.0,31,0.00,,,0.00,,2013-08-10 21:22:00,
2013-08-10 16:32:00,96.0,62.0,-100.00,North,-999,-999.0,-999.0,33,0.00,,,0.00,,2013-08-10 21:32:00,
2013-08-10 16:42:00,96.0,62.0,-100.00,North,-999,-999.0,-999.0,33,0.00,,,0.00,,2013-08-10 21:42:00,
2013-08-10 16:52:00,98.0,60.0,-100.00,North,-999,-999.0,-999.0,29,0.00,,,0.00,,2013-08-10 21:52:00,
2013-08-10 17:01:00,97.0,61.0,-100.00,North,-999,-999.0,-999.0,31,0.00,,,0.00,,2013-08-10 22:01:00,
2013-08-10 17:21:00,96.0,60.0,-100.00,North,-999,-999.0,-999.0,31,0.00,,,0.00,,2013-08-10 22:21:00,
2013-08-10 17:32:00,96.0,60.0,-100.00,North,-999,-999.0,-999.0,31,0.00,,,0.00,,2013-08-10 22:32:00,
2013-08-10 17:52:00,97.0,59.0,-100.00,North,-999,-999.0,-999.0,29,0.00,,,0.00,,2013-08-10 22:52:00,
2013-08-10 18:01:00,97.0,61.0,-100.00,North,-999,-999.0,-999.0,30,0.00,,,0.00,,2013-08-10 23:01:00,
2013-08-10 18:12:00,97.0,61.0,-100.00,North,-999,-999.0,-999.0,30,0.00,,,0.00,,2013-08-10 23:12:00,
2013-08-10 18:22:00,97.0,58.0,-100.00,North,-999,-999.0,-999.0,28,0.00,,,0.00,,2013-08-10 23:22:00,
2013-08-10 18:32:00,96.0,59.0,-100.00,North,-999,-999.0,-999.0,29,0.00,,,0.00,,2013-08-10 23:32:00,
2013-08-10 18:43:00,96.0,59.0,-100.00,North,-999,-999.0,-999.0,29,0.00,,,0.00,,2013-08-10 23:43:00,
2013-08-10 18:53:00,96.0,59.0,-100.00,North,-999,-999.0,-999.0,29,0.00,,,0.00,,2013-08-10 23:53:00,
2013-08-10 19:01:00,96.0,59.0,-100.00,North,-999,-999.0,-999.0,29,0.00,,,0.00,,2013-08-11 00:01:00,
2013-08-10 19:22:00,95.0,59.0,-100.00,North,-999,-999.0,-999.0,30,0.00,,,0.00,,2013-08-11 00:22:00,
2013-08-10 19:32:00,95.0,59.0,-100.00,North,-999,-999.0,-999.0,31,0.00,,,0.00,,2013-08-11 00:32:00,
2013-08-10 19:52:00,94.0,60.0,-100.00,North,-999,-999.0,-999.0,32,-99.99,,,0.00,,2013-08-11 00:52:00,
2013-08-10 20:01:00,94.0,60.0,-100.00,North,-999,-999.0,-999.0,33,0.00,,,0.00,,2013-08-11 01:01:00,
2013-08-10 20:22:00,92.0,61.0,-100.00,North,-999,-999.0,-999.0,35,0.00,,,0.00,,2013-08-11 01:22:00,
2013-08-10 21:22:00,83.0,68.0,-100.00,North,-999,-999.0,-999.0,60,0.00,,,0.00,,2013-08-11 02:22:00,
2013-08-10 21:32:00,81.0,69.0,-100.00,North,-999,-999.0,-999.0,66,0.00,,,0.00,,2013-08-11 02:32:00,
2013-08-10 21:43:00,81.0,69.0,-100.00,North,-999,-999.0,-999.0,66,0.00,,,0.00,,2013-08-11 02:43:00,
2013-08-10 21:56:00,80.0,69.0,-100.00,North,-999,-999.0,-999.0,68,0.00,,,0.00,,2013-08-11 02:56:00,
2013-08-10 22:05:00,80.0,69.0,-100.00,North,-999,-999.0,-999.0,69,0.00,,,0.00,,2013-08-11 03:05:00,
2013-08-10 22:26:00,80.0,69.0,-100.00,North,-999,-999.0,-999.0,67,0.00,,,0.00,,2013-08-11 03:26:00,
2013-08-10 22:35:00,81.0,69.0,-100.00,North,-999,-999.0,-999.0,68,0.00,,,0.00,,2013-08-11 03:35:00,
2013-08-10 22:54:00,80.0,69.0,-100.00,North,-999,-999.0,-999.0,69,0.00,,,0.00,,2013-08-11 03:54:00,
2013-08-10 23:01:00,80.0,69.0,-100.00,North,-999,-999.0,-999.0,69,0.00,,,0.00,,2013-08-11 04:01:00,
2013-08-10 23:12:00,80.0,69.0,-100.00,North,-999,-999.0,-999.0,69,0.00,,,0.00,,2013-08-11 04:12:00,
2013-08-10 23:22:00,80.0,69.0,-100.00,North,-999,-999.0,-999.0,69,0.00,,,0.00,,2013-08-11 04:22:00,
2013-08-10 23:32:00,80.0,69.0,-100.00,North,-999,-999.0,-999.0,69,0.00,,,0.00,,2013-08-11 04:32:00,
2013-08-10 23:53:00,79.0,69.0,-100.00,North,-999,-999.0,-999.0,71,0.00,,,-99.99,,2013-08-11 04:53:00,